Regional Weather Roundup
Issued by NWS

Home | Current Version | Previous Version | Graphics & Text | Print | Product List | Glossary On
Versions: 1 2 3 4 5 6 7 8 9 10 11 12 13 14 15 16 17 18 19 20 21 22 23 24 25 26 27
000
ASUS45 KCYS 190310
RWRWY

WYOMING REGIONAL WEATHER ROUNDUP
NATIONAL WEATHER SERVICE CHEYENNE WY
900 PM MDT FRI APR 18 2014

NOTE:  "FAIR" INDICATES FEW OR NO CLOUDS BELOW 12,000 FEET
WITH NO SIGNIFICANT WEATHER AND/OR OBSTRUCTIONS TO VISIBILITY.

WYZ001-190400-
YELLOWSTONE NATIONAL PARK

CITY           SKY/WX    TMP DP  RH WIND       PRES   REMARKS
LK YELLOWSTONE   N/A     34  22  61 VRB5      29.98R WCI  30
W YELLOWSTONE  NOT AVBL

$$
WYZ002>013-054>058-071-098>099-190400-
NORTHERN WYOMING

CITY           SKY/WX    TMP DP  RH WIND       PRES   REMARKS
JACKSON        CLEAR    N/A N/A N/A S14       29.99R
CODY           MOCLDY    54  21  28 W9G16     29.86R
GREYBULL       PTCLDY    50  33  52 NW22G31   29.81R
WORLAND        PTCLDY    50  29  44 NE7       29.80R
SHERIDAN         N/A     46  34  61 W17         N/A
BUFFALO        MOCLDY    48  36  63 N30G46    29.83R
GILLETTE       CLOUDY    46  37  71 NE3       29.78R
HULETT         FAIR      50  37  62 N5        29.77
NEWCASTLE      FAIR      54  37  54 CALM      29.74

$$
WYZ014>020-022>026-101>103-190400-
CENTRAL WYOMING

CITY           SKY/WX    TMP DP  RH WIND       PRES   REMARKS
BIG PINEY      MOCLDY    37  18  46 NE10      30.03R WCI  30
PINEDALE       PTCLDY    36  23  60 CALM      30.05R
DUBOIS         FAIR      37  14  38 NW15G24   29.94R WCI  28
LANDER         MOCLDY    58  13  17 NW13G30   29.83R
RIVERTON       MOCLDY    54   3  12 NW22      29.86R
CASPER         MOCLDY    54  34  46 SW15      29.85R
DOUGLAS        MOCLDY    56  36  47 CALM      29.84R

$$
WYZ021-027>030-104>119-190400-
SOUTHERN WYOMING

CITY           SKY/WX    TMP DP  RH WIND       PRES   REMARKS
EVANSTON       CLOUDY    48  33  56 NW8       30.02R
KEMMERER       MOCLDY    41  32  70 NW13      30.04R
FORT BRIDGER   MOCLDY    51  33  49 W9        30.04R
ROCK SPRINGS   CLOUDY    54  29  38 NW12      30.00R
DIXON          FAIR      53  33  46 S7        30.01R
RAWLINS        MOCLDY    50  29  44 SW15      29.96R
SARATOGA       FAIR      46  32  57 W7        30.01R
LARAMIE        CLOUDY    48  24  39 SW10      29.97R
CHEYENNE       CLOUDY    58  29  33 SW6       29.92R
TORRINGTON     CLOUDY    64  35  34 S8        29.77R
PINE BLUFFS    FAIR      63  30  29 S16       29.86R

$$



USA.gov is the U.S. government's official web portal to all federal, state and local government web resources and services.